User: anonymous   Login
Location: Unspecified
(0.0000°N, 0.0000°E)
Time: 06:17:46
(UTC+00:00)
Language:

NOSS 2-3 (C) - Orbit

View from above orbital plane
View from above orbital plane
View from above satellite
View from above satellite

Ground track
Ground track

The orbit data is extracted from the following two-line orbital elements,

1 23908U 96029C   19048.76599361 0.00000000  00000-0  00000-0 0    09
2 23908  63.3710 283.6204 0657000  17.0808 342.9192 13.40894142    07
Epoch (UTC): 17 February 2019 18:23:01
Eccentricity: 0.0657000
inclination: 63.3710°
perigee height: 614 km
apogee height: 1597 km
right ascension of ascending node: 283.6204°
argument of perigee: 17.0808°
revolutions per day: 13.40894142
mean anomaly at epoch: 342.9192°
orbit number at epoch: 0

The dashed part of the orbit path shows where the satellite is in the earth's shadow,  

DLR